QPF
0.02 0.02 0.02 0.03 0.03 0.02 0.01 0.01 0.01 0.02 0.02 0.01 0.01 0.01 0.02 0.02 0.03 0.03 0.03 0.03 0.03 0.03 0.03 0.03 0.04 0.04 0.04 0.04 0.05 0.06 0.05 0.03 0.03 0.03 0.03 0.03 0.04 0.03 0.03 0.03 0.04 0.04 0.04
0.02 0.03 0.02 0.02 0.02 0.02 0.02 0.01 0.01 0.01 0.02 0.02 0.01 0.01 0.01 0.02 0.02 0.02 0.02 0.04 0.04 0.03 0.03 0.03 0.03 0.03 0.05 0.06 0.07 0.07 0.06 0.04 0.04 0.04 0.03 0.04 0.04 0.04 0.05 0.05 0.05 0.05 0.05
0.02 0.03 0.02 0.02 0.02 0.02 0.02 0.02 0.01 0.01 0.01 0.01 0.01 0.01 0.01 0.02 0.03 0.03 0.03 0.04 0.04 0.03 0.02 0.02 0.03 0.04 0.05 0.07 0.08 0.09 0.08 0.06 0.05 0.05 0.05 0.05 0.05 0.04 0.04 0.04 0.05 0.05 0.05
0.03 0.03 0.03 0.02 0.02 0.02 0.02 0.02 0.02 0.02 0.01 0.01 0.01 0.01 0.02 0.02 0.02 0.03 0.03 0.04 0.04 0.03 0.02 0.01 0.01 0.02 0.04 0.06 0.08 0.08 0.09 0.09 0.08 0.07 0.07 0.06 0.06 0.06 0.05 0.06 0.06 0.05 0.05
0.04 0.04 0.03 0.03 0.03 0.03 0.02 0.02 0.02 0.02 0.02 0.01 0.01 0.01 0.02 0.02 0.03 0.03 0.04 0.04 0.05 0.04 0.03 0.02 0.01 0.01 0.02 0.04 0.06 0.07 0.06 0.05 0.06 0.06 0.07 0.06 0.07 0.08 0.08 0.08 0.08 0.08 0.07
0.05 0.05 0.04 0.04 0.03 0.03 0.03 0.02 0.02 0.02 0.02 0.02 0.02 0.02 0.02 0.02 0.03 0.03 0.04 0.04 0.04 0.04 0.03 0.03 0.02 0.02 0.02 0.03 0.05 0.06 0.06 0.05 0.04 0.04 0.04 0.04 0.05 0.05 0.06 0.07 0.08 0.08 0.09
0.08 0.07 0.06 0.04 0.04 0.03 0.03 0.03 0.03 0.02 0.02 0.03 0.04 0.04 0.03 0.03 0.03 0.03 0.04 0.04 0.04 0.04 0.03 0.02 0.02 0.02 0.03 0.03 0.04 0.06 0.06 0.05 0.05 0.04 0.04 0.04 0.04 0.04 0.05 0.05 0.07 0.08 0.08
0.06 0.08 0.09 0.08 0.06 0.05 0.05 0.04 0.04 0.03 0.03 0.03 0.04 0.04 0.05 0.05 0.04 0.04 0.04 0.04 0.03 0.03 0.03 0.03 0.02 0.02 0.02 0.02 0.03 0.04 0.05 0.05 0.04 0.05 0.04 0.04 0.04 0.05 0.06 0.06 0.06 0.08 0.09
0.05 0.07 0.08 0.09 0.09 0.08 0.07 0.06 0.05 0.05 0.04 0.03 0.04 0.05 0.05 0.04 0.04 0.05 0.04 0.03 0.02 0.01 0.01 0.02 0.02 0.01 0.01 0.01 0.02 0.03 0.03 0.05 0.05 0.06 0.06 0.05 0.05 0.05 0.06 0.06 0.06 0.08 0.11
0.04 0.05 0.06 0.08 0.09 0.09 0.08 0.08 0.07 0.07 0.06 0.05 0.04 0.05 0.05 0.03 0.04 0.05 0.05 0.03 0.01 0.01 0.01 0.01 0.01 0.01 0.01 0.01 0.02 0.03 0.04 0.05 0.06 0.06 0.05 0.05 0.05 0.05 0.05 0.06 0.06 0.06 0.09
0.04 0.04 0.04 0.06 0.08 0.09 0.09 0.10 0.10 0.09 0.09 0.08 0.07 0.05 0.05 0.04 0.04 0.04 0.05 0.04 0.02 0.00 0.00 0.00 0.00 0.01 0.01 0.01 0.01 0.02 0.03 0.04 0.06 0.07 0.05 0.06 0.05 0.05 0.05 0.06 0.06 0.05 0.06
0.03 0.03 0.03 0.03 0.04 0.05 0.06 0.06 0.07 0.08 0.07 0.08 0.08 0.07 0.06 0.05 0.05 0.05 0.05 0.04 0.02 0.01 0.01 0.00 0.00 0.00 0.00 0.01 0.01 0.01 0.02 0.02 0.03 0.04 0.04 0.03 0.03 0.03 0.04 0.05 0.06 0.06 0.06
0.03 0.03 0.02 0.02 0.03 0.04 0.05 0.06 0.06 0.06 0.06 0.06 0.07 0.07 0.06 0.05 0.05 0.05 0.06 0.05 0.03 0.02 0.01 0.01 0.01 0.00 0.00 0.01 0.01 0.01 0.01 0.02 0.02 0.02 0.03 0.03 0.02 0.02 0.03 0.05 0.06 0.06 0.06
0.02 0.02 0.02 0.02 0.02 0.02 0.03 0.05 0.06 0.07 0.06 0.05 0.06 0.06 0.06 0.05 0.04 0.05 0.05 0.04 0.03 0.03 0.02 0.02 0.01 0.01 0.01 0.00 0.01 0.01 0.01 0.02 0.02 0.02 0.02 0.02 0.01 0.01 0.02 0.04 0.07 0.07 0.06
0.02 0.02 0.02 0.02 0.02 0.02 0.02 0.03 0.05 0.08 0.09 0.07 0.06 0.06 0.06 0.06 0.06 0.05 0.05 0.04 0.04 0.04 0.03 0.03 0.02 0.02 0.01 0.01 0.02 0.01 0.01 0.02 0.02 0.02 0.02 0.02 0.02 0.02 0.02 0.04 0.06 0.07 0.07
0.01 0.01 0.01 0.01 0.01 0.01 0.01 0.02 0.03 0.05 0.09 0.10 0.09 0.08 0.07 0.06 0.07 0.06 0.06 0.05 0.04 0.05 0.05 0.04 0.03 0.02 0.02 0.02 0.02 0.02 0.02 0.02 0.02 0.02 0.02 0.02 0.02 0.03 0.02 0.03 0.06 0.07 0.07
0.00 0.00 0.01 0.01 0.01 0.01 0.01 0.01 0.02 0.03 0.05 0.08 0.09 0.10 0.10 0.06 0.06 0.06 0.06 0.05 0.05 0.05 0.05 0.04 0.04 0.03 0.03 0.03 0.03 0.03 0.03 0.03 0.03 0.03 0.03 0.03 0.02 0.02 0.03 0.04 0.05 0.06 0.07
0.01 0.00 0.00 0.00 0.00 0.01 0.01 0.01 0.01 0.02 0.03 0.05 0.07 0.08 0.10 0.09 0.08 0.06 0.06 0.06 0.05 0.06 0.06 0.05 0.04 0.03 0.03 0.03 0.03 0.03 0.03 0.03 0.03 0.03 0.03 0.03 0.03 0.03 0.03 0.04 0.06 0.06 0.06
0.01 0.01 0.01 0.01 0.01 0.00 0.00 0.01 0.01 0.01 0.02 0.03 0.05 0.07 0.08 0.09 0.08 0.06 0.05 0.05 0.04 0.05 0.05 0.06 0.05 0.04 0.03 0.03 0.02 0.02 0.02 0.02 0.02 0.02 0.01 0.02 0.02 0.03 0.03 0.03 0.05 0.07 0.07
0.01 0.01 0.01 0.00 0.00 0.00 0.00 0.00 0.01 0.01 0.02 0.03 0.04 0.07 0.07 0.09 0.08 0.06 0.06 0.05 0.04 0.04 0.04 0.04 0.04 0.03 0.03 0.03 0.03 0.03 0.02 0.02 0.02 0.01 0.01 0.01 0.01 0.02 0.02 0.03 0.04 0.06 0.07
0.01 0.00 0.01 0.01 0.00 0.00 0.01 0.01 0.01 0.01 0.02 0.03 0.03 0.05 0.07 0.07 0.07 0.06 0.06 0.06 0.06 0.05 0.05 0.04 0.04 0.03 0.03 0.02 0.02 0.02 0.02 0.02 0.02 0.01 0.01 0.01 0.01 0.01 0.02 0.03 0.04 0.05 0.06
0.00 0.00 0.00 0.00 0.01 0.01 0.01 0.01 0.01 0.01 0.02 0.03 0.03 0.04 0.06 0.06 0.06 0.04 0.04 0.05 0.06 0.07 0.07 0.06 0.05 0.05 0.04 0.03 0.02 0.03 0.03 0.03 0.02 0.01 0.01 0.01 0.02 0.02 0.02 0.04 0.06 0.06 0.06
0.00 0.00 0.00 0.00 0.01 0.01 0.01 0.01 0.01 0.01 0.02 0.02 0.04 0.04 0.05 0.06 0.06 0.04 0.03 0.02 0.03 0.04 0.05 0.05 0.06 0.05 0.04 0.04 0.04 0.03 0.03 0.03 0.02 0.01 0.01 0.02 0.02 0.02 0.02 0.03 0.05 0.05 0.05
0.00 0.01 0.01 0.01 0.01 0.01 0.01 0.01 0.01 0.01 0.01 0.02 0.03 0.04 0.04 0.05 0.06 0.05 0.04 0.03 0.02 0.02 0.02 0.02 0.03 0.03 0.03 0.03 0.05 0.05 0.05 0.05 0.04 0.02 0.02 0.02 0.02 0.02 0.02 0.04 0.05 0.04 0.04
0.01 0.01 0.01 0.01 0.01 0.01 0.02 0.02 0.01 0.01 0.01 0.02 0.02 0.03 0.04 0.04 0.05 0.05 0.04 0.03 0.02 0.01 0.01 0.01 0.02 0.02 0.02 0.03 0.04 0.06 0.07 0.07 0.07 0.04 0.03 0.02 0.02 0.02 0.03 0.04 0.05 0.04 0.04
0.01 0.01 0.01 0.01 0.02 0.02 0.02 0.01 0.02 0.01 0.02 0.02 0.02 0.03 0.03 0.03 0.04 0.04 0.04 0.04 0.03 0.02 0.01 0.01 0.02 0.02 0.02 0.02 0.03 0.04 0.06 0.07 0.06 0.05 0.04 0.04 0.04 0.04 0.05 0.06 0.05 0.05 0.05
MSLP
1022.61 1022.58 1022.52 1022.48 1022.47 1022.51 1022.59 1022.69 1022.78 1022.83 1022.82 1022.75 1022.66 1022.57 1022.51 1022.52 1022.60 1022.75 1022.93 1023.12 1023.28 1023.39 1023.46 1023.48 1023.49 1023.51 1023.56 1023.66 1023.79 1023.93 1024.06 1024.16 1024.20 1024.19 1024.14 1024.07 1024.01 1023.98 1023.98 1024.01 1024.06 1024.10 1024.12
1022.95 1022.85 1022.73 1022.63 1022.58 1022.60 1022.68 1022.79 1022.91 1022.99 1023.01 1022.98 1022.92 1022.86 1022.83 1022.85 1022.94 1023.09 1023.28 1023.46 1023.60 1023.69 1023.72 1023.71 1023.69 1023.68 1023.71 1023.80 1023.93 1024.09 1024.25 1024.37 1024.45 1024.47 1024.45 1024.40 1024.35 1024.33 1024.34 1024.37 1024.43 1024.48 1024.52
1023.42 1023.24 1023.04 1022.87 1022.76 1022.74 1022.79 1022.90 1023.03 1023.13 1023.18 1023.18 1023.15 1023.11 1023.10 1023.14 1023.24 1023.39 1023.57 1023.75 1023.88 1023.95 1023.96 1023.92 1023.87 1023.83 1023.84 1023.91 1024.03 1024.19 1024.37 1024.52 1024.62 1024.67 1024.68 1024.66 1024.63 1024.62 1024.64 1024.69 1024.75 1024.82 1024.87
1024.04 1023.78 1023.49 1023.23 1023.05 1022.96 1022.97 1023.05 1023.15 1023.25 1023.32 1023.33 1023.31 1023.29 1023.28 1023.33 1023.43 1023.58 1023.76 1023.93 1024.06 1024.12 1024.12 1024.07 1024.00 1023.94 1023.93 1023.98 1024.09 1024.25 1024.43 1024.60 1024.73 1024.81 1024.84 1024.84 1024.83 1024.83 1024.87 1024.92 1025.01 1025.09 1025.16
1024.80 1024.46 1024.08 1023.73 1023.46 1023.29 1023.22 1023.24 1023.31 1023.38 1023.42 1023.42 1023.40 1023.36 1023.35 1023.38 1023.47 1023.62 1023.79 1023.96 1024.09 1024.17 1024.17 1024.12 1024.05 1023.98 1023.96 1024.00 1024.11 1024.27 1024.45 1024.63 1024.78 1024.87 1024.92 1024.94 1024.94 1024.95 1024.99 1025.06 1025.15 1025.26 1025.35
1025.68 1025.27 1024.81 1024.37 1023.99 1023.72 1023.56 1023.50 1023.49 1023.51 1023.50 1023.47 1023.41 1023.34 1023.30 1023.30 1023.36 1023.49 1023.65 1023.82 1023.96 1024.05 1024.08 1024.05 1023.99 1023.94 1023.93 1023.97 1024.08 1024.23 1024.42 1024.61 1024.76 1024.87 1024.93 1024.95 1024.96 1024.97 1025.01 1025.07 1025.18 1025.29 1025.40
1026.65 1026.17 1025.63 1025.10 1024.63 1024.26 1023.99 1023.83 1023.74 1023.67 1023.60 1023.51 1023.40 1023.28 1023.19 1023.14 1023.16 1023.25 1023.39 1023.54 1023.68 1023.79 1023.84 1023.85 1023.82 1023.80 1023.80 1023.86 1023.98 1024.14 1024.33 1024.52 1024.68 1024.80 1024.86 1024.88 1024.87 1024.88 1024.90 1024.96 1025.06 1025.18 1025.31
1027.63 1027.10 1026.51 1025.90 1025.34 1024.87 1024.51 1024.25 1024.07 1023.92 1023.78 1023.62 1023.44 1023.26 1023.11 1022.99 1022.95 1022.98 1023.07 1023.20 1023.33 1023.44 1023.51 1023.55 1023.55 1023.56 1023.60 1023.68 1023.81 1023.99 1024.18 1024.38 1024.54 1024.65 1024.71 1024.72 1024.70 1024.68 1024.68 1024.73 1024.81 1024.93 1025.07
1028.58 1028.02 1027.38 1026.72 1026.09 1025.55 1025.11 1024.77 1024.51 1024.30 1024.09 1023.88 1023.64 1023.40 1023.17 1022.98 1022.86 1022.82 1022.84 1022.91 1023.00 1023.09 1023.16 1023.21 1023.24 1023.28 1023.34 1023.44 1023.59 1023.77 1023.98 1024.17 1024.34 1024.44 1024.49 1024.49 1024.45 1024.41 1024.38 1024.39 1024.45 1024.55 1024.69
1029.48 1028.89 1028.22 1027.53 1026.86 1026.27 1025.79 1025.40 1025.09 1024.84 1024.59 1024.34 1024.06 1023.76 1023.47 1023.21 1023.00 1022.87 1022.80 1022.79 1022.82 1022.86 1022.90 1022.94 1022.97 1023.01 1023.08 1023.19 1023.35 1023.54 1023.74 1023.94 1024.10 1024.20 1024.24 1024.22 1024.16 1024.09 1024.02 1024.00 1024.02 1024.10 1024.21
1030.30 1029.70 1029.02 1028.32 1027.64 1027.04 1026.53 1026.13 1025.81 1025.55 1025.29 1025.03 1024.73 1024.40 1024.06 1023.73 1023.44 1023.20 1023.03 1022.93 1022.87 1022.84 1022.82 1022.82 1022.83 1022.85 1022.91 1023.02 1023.16 1023.34 1023.54 1023.72 1023.87 1023.97 1023.99 1023.96 1023.87 1023.77 1023.67 1023.60 1023.58 1023.61 1023.68
1031.04 1030.45 1029.78 1029.08 1028.42 1027.83 1027.33 1026.94 1026.64 1026.39 1026.16 1025.91 1025.62 1025.28 1024.92 1024.54 1024.17 1023.85 1023.58 1023.37 1023.21 1023.09 1023.00 1022.94 1022.90 1022.89 1022.91 1022.98 1023.10 1023.25 1023.43 1023.59 1023.72 1023.80 1023.81 1023.75 1023.64 1023.51 1023.37 1023.25 1023.18 1023.15 1023.17
1031.74 1031.15 1030.50 1029.83 1029.19 1028.63 1028.16 1027.81 1027.54 1027.33 1027.14 1026.93 1026.67 1026.34 1025.97 1025.56 1025.15 1024.76 1024.40 1024.10 1023.85 1023.64 1023.47 1023.34 1023.24 1023.17 1023.15 1023.17 1023.24 1023.34 1023.47 1023.59 1023.69 1023.74 1023.72 1023.64 1023.51 1023.34 1023.17 1023.00 1022.87 1022.78 1022.74
1032.39 1031.82 1031.19 1030.56 1029.96 1029.43 1029.00 1028.69 1028.46 1028.30 1028.15 1027.98 1027.76 1027.47 1027.11 1026.70 1026.27 1025.83 1025.42 1025.05 1024.73 1024.45 1024.22 1024.02 1023.86 1023.73 1023.65 1023.61 1023.61 1023.65 1023.71 1023.78 1023.82 1023.82 1023.77 1023.66 1023.50 1023.31 1023.09 1022.89 1022.70 1022.55 1022.44
1033.03 1032.48 1031.89 1031.28 1030.72 1030.23 1029.83 1029.55 1029.35 1029.23 1029.12 1028.99 1028.81 1028.56 1028.23 1027.84 1027.41 1026.96 1026.53 1026.13 1025.77 1025.45 1025.18 1024.94 1024.73 1024.55 1024.41 1024.30 1024.23 1024.18 1024.16 1024.15 1024.12 1024.06 1023.96 1023.82 1023.63 1023.40 1023.16 1022.92 1022.69 1022.49 1022.31
1033.67 1033.14 1032.58 1032.01 1031.47 1031.01 1030.63 1030.36 1030.19 1030.07 1029.99 1029.89 1029.74 1029.52 1029.23 1028.87 1028.47 1028.04 1027.62 1027.23 1026.87 1026.55 1026.26 1026.00 1025.77 1025.55 1025.36 1025.19 1025.03 1024.91 1024.79 1024.69 1024.57 1024.44 1024.28 1024.09 1023.87 1023.61 1023.35 1023.08 1022.83 1022.59 1022.36
1034.31 1033.81 1033.28 1032.74 1032.22 1031.77 1031.40 1031.13 1030.94 1030.83 1030.74 1030.64 1030.51 1030.32 1030.06 1029.74 1029.38 1028.99 1028.61 1028.25 1027.93 1027.63 1027.36 1027.12 1026.88 1026.65 1026.42 1026.19 1025.96 1025.75 1025.54 1025.34 1025.13 1024.92 1024.69 1024.45 1024.19 1023.91 1023.63 1023.35 1023.08 1022.82 1022.57
1034.94 1034.47 1033.97 1033.46 1032.97 1032.52 1032.14 1031.85 1031.64 1031.50 1031.39 1031.28 1031.15 1030.96 1030.73 1030.44 1030.12 1029.78 1029.46 1029.15 1028.87 1028.62 1028.39 1028.17 1027.95 1027.72 1027.47 1027.20 1026.91 1026.62 1026.33 1026.03 1025.74 1025.44 1025.15 1024.85 1024.56 1024.26 1023.97 1023.69 1023.41 1023.14 1022.87
1035.55 1035.13 1034.66 1034.18 1033.70 1033.25 1032.86 1032.55 1032.30 1032.12 1031.97 1031.83 1031.68 1031.49 1031.27 1031.01 1030.72 1030.43 1030.15 1029.89 1029.67 1029.47 1029.28 1029.10 1028.90 1028.67 1028.42 1028.12 1027.80 1027.45 1027.08 1026.71 1026.34 1025.98 1025.62 1025.28 1024.95 1024.63 1024.33 1024.04 1023.77 1023.49 1023.21
1036.15 1035.76 1035.32 1034.87 1034.40 1033.96 1033.56 1033.21 1032.93 1032.71 1032.52 1032.34 1032.16 1031.96 1031.73 1031.48 1031.22 1030.95 1030.71 1030.49 1030.31 1030.14 1029.99 1029.84 1029.67 1029.46 1029.21 1028.90 1028.56 1028.17 1027.76 1027.34 1026.91 1026.50 1026.10 1025.71 1025.35 1025.01 1024.70 1024.40 1024.11 1023.83 1023.54
1036.70 1036.35 1035.94 1035.51 1035.06 1034.62 1034.21 1033.85 1033.53 1033.27 1033.04 1032.83 1032.62 1032.39 1032.16 1031.91 1031.65 1031.40 1031.17 1030.98 1030.81 1030.67 1030.54 1030.41 1030.25 1030.06 1029.81 1029.52 1029.17 1028.78 1028.35 1027.91 1027.45 1027.00 1026.57 1026.16 1025.77 1025.41 1025.07 1024.75 1024.44 1024.13 1023.81
1037.20 1036.87 1036.49 1036.08 1035.64 1035.21 1034.79 1034.41 1034.08 1033.78 1033.52 1033.28 1033.05 1032.81 1032.56 1032.30 1032.04 1031.79 1031.57 1031.37 1031.20 1031.06 1030.94 1030.81 1030.66 1030.48 1030.25 1029.97 1029.64 1029.27 1028.85 1028.42 1027.96 1027.51 1027.07 1026.64 1026.22 1025.83 1025.45 1025.09 1024.74 1024.38 1024.01
1037.62 1037.30 1036.94 1036.54 1036.12 1035.68 1035.27 1034.88 1034.52 1034.21 1033.93 1033.67 1033.42 1033.17 1032.92 1032.66 1032.39 1032.14 1031.91 1031.70 1031.52 1031.37 1031.23 1031.09 1030.95 1030.77 1030.56 1030.31 1030.01 1029.67 1029.29 1028.89 1028.46 1028.03 1027.59 1027.15 1026.71 1026.28 1025.86 1025.44 1025.01 1024.59 1024.15
1037.93 1037.62 1037.26 1036.86 1036.44 1036.01 1035.58 1035.19 1034.83 1034.51 1034.22 1033.95 1033.70 1033.45 1033.20 1032.95 1032.69 1032.43 1032.20 1031.98 1031.78 1031.61 1031.45 1031.30 1031.15 1030.98 1030.79 1030.56 1030.31 1030.01 1029.69 1029.33 1028.95 1028.55 1028.12 1027.68 1027.23 1026.76 1026.28 1025.78 1025.28 1024.76 1024.23
1038.11 1037.79 1037.42 1037.02 1036.59 1036.15 1035.72 1035.32 1034.96 1034.63 1034.34 1034.08 1033.84 1033.61 1033.37 1033.13 1032.89 1032.65 1032.42 1032.20 1031.99 1031.81 1031.63 1031.47 1031.31 1031.14 1030.96 1030.76 1030.54 1030.30 1030.03 1029.73 1029.40 1029.03 1028.64 1028.20 1027.73 1027.22 1026.68 1026.11 1025.52 1024.91 1024.29
1038.14 1037.80 1037.42 1037.00 1036.56 1036.11 1035.68 1035.27 1034.90 1034.58 1034.30 1034.05 1033.82 1033.61 1033.41 1033.20 1032.99 1032.78 1032.57 1032.36 1032.16 1031.97 1031.79 1031.61 1031.44 1031.27 1031.10 1030.92 1030.73 1030.52 1030.30 1030.05 1029.76 1029.44 1029.07 1028.64 1028.16 1027.63 1027.03 1026.40 1025.72 1025.03 1024.32
Thickness
5605 5605 5606 5606 5607 5608 5609 5610 5611 5611 5611 5611 5611 5612 5613 5613 5613 5614 5614 5614 5615 5617 5618 5620 5620 5621 5622 5622 5622 5622 5623 5624 5625 5625 5625 5626 5626 5627 5628 5628 5628 5628 5628
5595 5596 5596 5597 5597 5598 5599 5600 5601 5601 5601 5601 5602 5602 5603 5604 5604 5604 5605 5605 5606 5607 5608 5610 5611 5612 5613 5613 5614 5614 5614 5615 5616 5616 5616 5617 5618 5619 5620 5621 5621 5621 5622
5585 5585 5586 5586 5587 5587 5588 5589 5591 5591 5592 5592 5592 5592 5593 5594 5594 5594 5595 5595 5596 5597 5598 5599 5600 5601 5603 5604 5605 5605 5606 5606 5606 5607 5608 5608 5609 5610 5611 5612 5613 5614 5614
5575 5575 5576 5576 5576 5577 5578 5579 5580 5582 5582 5582 5583 5583 5583 5583 5584 5584 5584 5585 5586 5587 5588 5588 5589 5591 5592 5593 5594 5595 5596 5597 5597 5598 5598 5599 5600 5601 5602 5603 5604 5605 5605
5564 5565 5566 5566 5566 5567 5568 5568 5569 5570 5572 5572 5572 5573 5573 5573 5573 5573 5574 5574 5575 5575 5577 5578 5579 5579 5580 5582 5583 5585 5586 5587 5587 5589 5589 5590 5591 5592 5594 5595 5595 5596 5597
5554 5554 5555 5555 5556 5556 5557 5557 5558 5558 5560 5561 5561 5562 5563 5563 5562 5563 5563 5563 5564 5565 5565 5566 5567 5568 5569 5570 5572 5573 5574 5575 5577 5578 5579 5580 5581 5583 5584 5585 5586 5587 5587
5542 5543 5544 5544 5544 5545 5546 5546 5546 5547 5548 5548 5550 5553 5554 5553 5553 5552 5552 5552 5553 5554 5554 5554 5555 5556 5558 5558 5559 5561 5563 5564 5566 5568 5569 5570 5572 5573 5574 5576 5576 5577 5578
5529 5530 5531 5532 5532 5533 5534 5534 5534 5535 5536 5536 5538 5542 5545 5546 5544 5542 5542 5542 5543 5543 5543 5543 5543 5544 5545 5547 5548 5549 5551 5553 5555 5557 5558 5560 5562 5563 5564 5565 5566 5567 5568
5516 5517 5518 5519 5519 5520 5521 5521 5522 5523 5524 5524 5525 5528 5532 5537 5535 5534 5532 5532 5532 5532 5532 5532 5532 5532 5533 5535 5536 5538 5539 5541 5544 5546 5548 5551 5552 5553 5554 5555 5556 5557 5558
5502 5503 5504 5504 5506 5506 5508 5508 5509 5510 5511 5513 5512 5512 5514 5518 5519 5524 5524 5523 5522 5522 5521 5521 5521 5521 5522 5523 5525 5526 5528 5530 5532 5534 5537 5539 5541 5542 5544 5545 5546 5547 5548
5488 5488 5489 5490 5491 5493 5494 5495 5495 5496 5497 5499 5500 5500 5501 5502 5505 5508 5513 5513 5511 5511 5510 5509 5509 5510 5510 5511 5513 5515 5516 5517 5519 5521 5524 5526 5529 5531 5532 5534 5536 5536 5537
5474 5474 5475 5475 5477 5478 5479 5480 5481 5483 5484 5485 5485 5486 5487 5489 5491 5494 5498 5500 5501 5500 5498 5497 5497 5498 5498 5499 5501 5502 5503 5504 5506 5508 5511 5514 5516 5518 5520 5522 5524 5525 5526
5461 5461 5461 5461 5462 5463 5464 5465 5467 5469 5470 5470 5471 5472 5473 5475 5476 5478 5481 5485 5487 5488 5487 5487 5486 5486 5486 5487 5488 5489 5491 5492 5493 5496 5498 5501 5503 5505 5507 5510 5512 5513 5515
5446 5446 5446 5447 5448 5449 5450 5451 5453 5454 5455 5456 5458 5459 5460 5461 5462 5463 5465 5468 5472 5476 5476 5477 5475 5473 5473 5474 5475 5476 5478 5479 5480 5482 5485 5488 5490 5492 5494 5496 5499 5501 5503
5431 5431 5432 5433 5434 5435 5436 5437 5439 5440 5440 5442 5444 5445 5447 5448 5449 5450 5451 5452 5456 5462 5467 5467 5463 5461 5460 5460 5461 5463 5465 5467 5468 5469 5472 5474 5477 5479 5481 5484 5486 5489 5491
5416 5417 5417 5418 5419 5420 5421 5422 5424 5426 5426 5428 5429 5431 5432 5434 5435 5436 5437 5439 5440 5443 5450 5453 5449 5448 5447 5447 5448 5449 5451 5453 5455 5457 5459 5462 5464 5467 5469 5472 5474 5476 5478
5402 5402 5402 5403 5404 5406 5407 5408 5410 5412 5413 5414 5415 5417 5418 5419 5421 5423 5424 5425 5426 5427 5431 5435 5434 5433 5433 5433 5434 5435 5437 5439 5442 5444 5446 5448 5451 5453 5456 5458 5461 5463 5464
5387 5387 5387 5388 5389 5390 5391 5393 5395 5397 5399 5401 5402 5403 5404 5405 5407 5410 5410 5411 5412 5412 5414 5418 5419 5418 5419 5419 5420 5421 5423 5426 5429 5431 5433 5435 5437 5440 5442 5445 5447 5449 5451
5372 5372 5372 5373 5374 5376 5377 5378 5380 5382 5384 5386 5387 5389 5391 5392 5394 5396 5396 5397 5397 5398 5399 5401 5404 5403 5403 5404 5404 5406 5408 5411 5414 5417 5419 5422 5425 5427 5429 5431 5433 5435 5438
5358 5358 5358 5358 5359 5360 5362 5363 5365 5367 5370 5372 5373 5375 5376 5378 5379 5381 5382 5382 5383 5383 5384 5385 5388 5389 5389 5389 5389 5392 5395 5397 5401 5403 5406 5408 5411 5413 5416 5418 5421 5422 5424
5343 5343 5343 5343 5344 5345 5347 5349 5351 5353 5355 5358 5359 5361 5363 5363 5364 5366 5367 5367 5368 5369 5369 5371 5373 5374 5375 5375 5376 5379 5381 5384 5387 5388 5391 5395 5398 5401 5403 5405 5407 5409 5410
5327 5327 5328 5329 5330 5331 5333 5334 5336 5339 5342 5344 5346 5347 5348 5349 5350 5351 5352 5352 5352 5354 5355 5356 5359 5360 5362 5362 5363 5364 5365 5369 5374 5376 5376 5381 5383 5387 5390 5393 5395 5396 5398
5311 5312 5313 5314 5316 5317 5318 5320 5322 5325 5328 5330 5332 5333 5334 5335 5335 5337 5337 5337 5338 5338 5340 5342 5344 5346 5348 5349 5348 5350 5351 5353 5358 5361 5361 5367 5369 5374 5377 5379 5381 5383 5385
5296 5297 5298 5300 5301 5303 5304 5306 5308 5311 5314 5316 5318 5318 5319 5320 5321 5322 5323 5324 5325 5325 5327 5328 5331 5333 5333 5333 5333 5335 5337 5339 5342 5345 5346 5351 5356 5359 5362 5364 5367 5369 5371
5281 5282 5284 5285 5288 5290 5291 5292 5294 5297 5300 5302 5303 5304 5305 5306 5307 5308 5309 5311 5312 5312 5312 5313 5314 5317 5318 5319 5318 5319 5322 5325 5330 5333 5333 5336 5341 5343 5347 5351 5353 5354 5356
5266 5268 5270 5272 5274 5276 5278 5279 5280 5283 5286 5288 5290 5291 5291 5292 5293 5294 5295 5296 5298 5299 5299 5300 5301 5303 5305 5307 5307 5308 5310 5313 5317 5320 5322 5322 5325 5326 5332 5338 5338 5340 5342